TimeAKST,TemperatureF,Dew PointF,Humidity,Sea Level PressureIn,VisibilityMPH,Wind Direction,Wind SpeedMPH,Gust SpeedMPH,PrecipitationIn,Events,Conditions,WindDirDegrees,DateUTC
12:53 AM,-4.0,-11.9,69,29.75,10.0,North,4.6,-,N/A,,Clear,360,2012-12-24 09:53:00
1:53 AM,-0.9,-11.0,62,29.74,10.0,NE,6.9,-,N/A,,Clear,50,2012-12-24 10:53:00
2:53 AM,-2.0,-11.9,63,29.72,10.0,Calm,Calm,-,N/A,,Clear,0,2012-12-24 11:53:00
3:53 AM,-0.0,-11.0,60,29.71,10.0,NNE,9.2,-,N/A,,Clear,30,2012-12-24 12:53:00
4:53 AM,-0.9,-11.9,60,29.69,10.0,North,6.9,-,N/A,,Clear,350,2012-12-24 13:53:00
5:53 AM,-2.9,-13.0,62,29.67,10.0,Variable,3.5,-,N/A,,Clear,0,2012-12-24 14:53:00
6:53 AM,-2.0,-11.9,63,29.66,10.0,North,4.6,-,N/A,,Clear,360,2012-12-24 15:53:00
7:53 AM,-2.9,-11.9,65,29.65,10.0,Calm,Calm,-,N/A,,Clear,0,2012-12-24 16:53:00
8:53 AM,-7.1,-14.1,72,29.64,10.0,Calm,Calm,-,N/A,,Clear,0,2012-12-24 17:53:00
9:53 AM,-9.0,-15.0,75,29.62,10.0,North,4.6,-,N/A,,Clear,350,2012-12-24 18:53:00
10:53 AM,-9.9,-15.0,78,29.62,10.0,Calm,Calm,-,N/A,,Clear,0,2012-12-24 19:53:00
11:53 AM,-8.0,-14.1,75,29.62,10.0,Calm,Calm,-,N/A,,Clear,0,2012-12-24 20:53:00
12:53 PM,-5.1,-13.0,69,29.62,10.0,WSW,3.5,-,N/A,,Partly Cloudy,250,2012-12-24 21:53:00
1:53 PM,-6.0,-13.0,72,29.60,10.0,West,5.8,-,N/A,,Partly Cloudy,280,2012-12-24 22:53:00
2:53 PM,-4.0,-13.0,65,29.58,10.0,Variable,3.5,-,N/A,,Partly Cloudy,0,2012-12-24 23:53:00
3:53 PM,-2.0,-11.0,66,29.56,10.0,Calm,Calm,-,N/A,,Partly Cloudy,0,2012-12-25 00:53:00
4:53 PM,-6.0,-13.0,72,29.54,10.0,Calm,Calm,-,N/A,,Partly Cloudy,0,2012-12-25 01:53:00
5:53 PM,-8.0,-15.0,71,29.55,10.0,Calm,Calm,-,N/A,,Partly Cloudy,0,2012-12-25 02:53:00
6:53 PM,-8.0,-14.1,75,29.54,10.0,North,5.8,-,N/A,,Partly Cloudy,350,2012-12-25 03:53:00
7:53 PM,-8.0,-15.0,71,29.53,10.0,Calm,Calm,-,N/A,,Scattered Clouds,0,2012-12-25 04:53:00
8:53 PM,-0.9,-11.0,62,29.50,10.0,Calm,Calm,-,N/A,,Partly Cloudy,0,2012-12-25 05:53:00
9:53 PM,-4.0,-13.0,65,29.50,10.0,Calm,Calm,-,N/A,,Scattered Clouds,0,2012-12-25 06:53:00
10:53 PM,-4.0,-11.2,71,29.48,10.0,Calm,Calm,-,N/A,,Scattered Clouds,0,2012-12-25 07:53:00
11:53 PM,-0.9,-9999,N/A,29.48,10.0,Calm,Calm,-,N/A,,Scattered Clouds,0,2012-12-25 08:53:00